Date String (YYYY-MM-DD hh:mm:ss) UTC,Instrument flags,Ambient pressure (hPa),Sample flow (lpm),Bypass flow (lpm),Sample temperature (°C),Ambient temperature (°C),ASC tube jacket temperature (°C),LED temperature (°C),Box temperature (°C),Sample RH (%),Span deviation,Mass concentration (μg/m³),Mass concentration (μg/m³),Mass concentration (μg/m³)
DateTimeUTC,F1_M11,P_M11,Q1_M11,Q2_M11,T1_M11,T2_M11,T3_M11,T4_M11,T5_M11,U1_M11,ZSPAN_M11,X0_M11,X2_M11,X1_M11
2022-08-02 20:00:00,,0824.8,5.00,0.00,29.3,27.7,00.0,38.0,31.1,22.5,0000.0,0005.57,0002.31,0001.91
2022-08-02 20:01:00,,0824.8,5.00,0.00,29.3,27.9,00.0,38.0,31.2,22.7,0000.0,0004.88,0002.30,0001.92
2022-08-02 20:02:00,,0824.7,5.01,0.00,29.3,28.0,00.0,38.0,31.2,22.9,0000.0,0004.86,0002.26,0001.92
2022-08-02 20:03:00,,0824.7,4.99,0.00,29.3,27.5,00.0,38.0,31.2,22.8,0000.0,0005.19,0002.25,0001.92
2022-08-02 20:04:00,,0824.8,5.00,0.00,29.3,27.2,00.0,38.0,31.1,22.7,0000.0,0005.19,0002.26,0001.93
2022-08-02 20:05:00,,0824.7,4.99,0.00,29.3,27.3,00.0,38.0,31.1,22.5,0000.0,0005.12,0002.23,0001.94
2022-08-02 20:06:00,,0824.8,5.01,0.00,29.3,27.4,00.0,38.0,31.1,22.4,0000.0,0005.13,0002.23,0001.93
2022-08-02 20:07:00,,0824.7,5.00,0.00,29.3,27.6,00.0,38.0,31.1,22.6,0000.0,0004.63,0002.19,0001.91
2022-08-02 20:08:00,,0824.8,5.00,0.00,29.3,27.8,00.0,38.0,31.2,22.9,0000.0,0004.16,0002.15,0001.90
2022-08-02 20:09:00,,0824.7,5.00,0.00,29.3,28.1,00.0,38.0,31.3,22.7,0000.0,0003.95,0002.15,0001.89
2022-08-02 20:10:00,,0824.8,5.00,0.00,29.4,28.1,00.0,38.0,31.3,22.9,0000.0,0004.00,0002.16,0001.89
2022-08-02 20:11:00,,0824.7,5.00,0.00,29.4,27.7,00.0,38.0,31.2,22.1,0000.0,0004.00,0002.16,0001.89
2022-08-02 20:12:00,,0824.7,4.99,0.00,29.3,27.3,00.0,38.0,31.1,22.0,0000.0,0004.61,0002.15,0001.89
2022-08-02 20:13:00,,0824.7,5.01,0.00,29.3,27.4,00.0,38.0,31.2,21.9,0000.0,0004.72,0002.18,0001.90
2022-08-02 20:14:00,,0824.7,4.99,0.00,29.3,27.5,00.0,38.0,31.1,22.0,0000.0,0004.35,0002.19,0001.90
2022-08-02 20:15:00,,0824.7,5.00,0.00,29.3,27.7,00.0,38.0,31.1,22.1,0000.0,0004.47,0002.23,0001.91
2022-08-02 20:16:00,,0824.6,5.00,0.00,29.3,27.9,00.0,38.0,31.1,22.1,0000.0,0004.45,0002.24,0001.92
2022-08-02 20:17:00,,0824.6,5.00,0.00,29.3,28.1,00.0,38.0,31.2,22.5,0000.0,0004.52,0002.27,0001.93
2022-08-02 20:18:00,,0824.6,5.00,0.00,29.4,27.9,00.0,38.0,31.2,23.1,0000.0,0004.57,0002.29,0001.94
2022-08-02 20:19:00,,0824.5,5.00,0.00,29.3,27.3,00.0,38.0,31.1,23.8,0000.0,0004.09,0002.30,0001.94
2022-08-02 20:20:00,,0824.6,5.00,0.00,29.3,27.3,00.0,38.0,31.1,24.0,0000.0,0004.56,0002.30,0001.93
2022-08-02 20:21:00,,0824.7,5.00,0.00,29.3,27.4,00.0,38.0,31.1,24.2,0000.0,0005.49,0002.31,0001.91
2022-08-02 20:22:00,,0824.8,5.01,0.00,29.3,27.5,00.0,38.0,31.1,24.0,0000.0,0006.48,0002.37,0001.88
2022-08-02 20:23:00,,0824.7,5.00,0.00,29.3,27.7,00.0,38.0,31.1,24.0,0000.0,0006.46,0002.36,0001.84
2022-08-02 20:24:00,,0824.8,5.00,0.00,29.3,28.0,00.0,38.0,31.2,23.7,0000.0,0007.76,0002.28,0001.79
2022-08-02 20:25:00,,0824.8,5.00,0.00,29.4,28.0,00.0,38.0,31.2,23.5,0000.0,0007.74,0002.22,0001.75
2022-08-02 20:26:00,,0824.7,5.00,0.00,29.3,27.4,00.0,38.0,31.1,23.2,0000.0,0007.69,0002.13,0001.69
2022-08-02 20:27:00,,0824.9,5.01,0.00,29.3,27.1,00.0,38.0,31.1,23.2,0000.0,0008.36,0002.09,0001.62
2022-08-02 20:28:00,,0824.9,4.99,0.00,29.3,27.1,00.0,38.0,31.0,23.3,0000.0,0008.27,0001.99,0001.54
2022-08-02 20:29:00,,0824.9,5.01,0.00,29.2,27.3,00.0,38.0,31.0,23.5,0000.0,0008.20,0001.93,0001.47
2022-08-02 20:30:00,,0824.9,4.99,0.00,29.2,27.5,00.0,38.0,31.0,23.6,0000.0,0008.16,0001.87,0001.42
2022-08-02 20:31:00,,0825.0,5.00,0.00,29.2,27.7,00.0,38.0,31.1,23.8,0000.0,0008.09,0001.86,0001.36
2022-08-02 20:32:00,,0825.1,5.00,0.00,29.3,27.9,00.0,38.0,31.2,23.7,0000.0,0008.22,0001.82,0001.30
2022-08-02 20:33:00,,0825.1,4.99,0.00,29.3,27.9,00.0,38.0,31.2,23.3,0000.0,0007.79,0001.73,0001.25
2022-08-02 20:34:00,,0825.1,5.00,0.00,29.3,27.3,00.0,38.0,31.1,23.3,0000.0,0007.20,0001.66,0001.20
2022-08-02 20:35:00,,0825.2,4.99,0.00,29.2,27.0,00.0,38.0,31.0,23.6,0000.0,0005.56,0001.62,0001.15
2022-08-02 20:36:00,,0825.2,5.00,0.00,29.2,27.0,00.0,37.9,31.0,23.5,0000.0,0005.49,0001.56,0001.09
2022-08-02 20:37:00,,0825.2,5.00,0.00,29.2,27.2,00.0,37.9,30.9,23.6,0000.0,0005.29,0001.51,0001.04
2022-08-02 20:38:00,,0825.2,5.00,0.00,29.1,27.4,00.0,37.9,31.0,23.7,0000.0,0004.08,0001.45,0001.00
2022-08-02 20:39:00,,0825.2,5.01,0.00,29.2,27.6,00.0,37.9,31.0,23.9,0000.0,0004.08,0001.44,0000.99
2022-08-02 20:40:00,,0825.2,5.00,0.00,29.2,27.8,00.0,37.9,31.1,23.8,0000.0,0004.10,0001.42,0000.95
2022-08-02 20:41:00,,0825.2,5.00,0.00,29.3,28.0,00.0,38.0,31.2,23.8,0000.0,0004.16,0001.41,0000.92
2022-08-02 20:42:00,,0825.2,5.00,0.00,29.3,27.7,00.0,38.0,31.1,23.3,0000.0,0004.02,0001.31,0000.88
2022-08-02 20:43:00,,0825.1,5.00,0.00,29.2,27.1,00.0,37.9,31.0,24.2,0000.0,0003.09,0001.22,0000.86
2022-08-02 20:44:00,,0825.1,4.99,0.00,29.2,27.0,00.0,37.9,31.0,26.8,0000.0,0003.20,0001.31,0000.96
2022-08-02 20:45:00,,0825.1,4.99,0.00,29.2,27.1,00.0,37.9,30.9,27.2,0000.0,0004.82,0001.56,0001.11
2022-08-02 20:46:00,,0825.1,5.00,0.00,29.1,27.3,00.0,37.9,30.9,26.8,0000.0,0006.27,0001.86,0001.30
2022-08-02 20:47:00,,0825.0,5.01,0.00,29.1,27.5,00.0,37.9,31.0,27.5,0000.0,0006.83,0002.18,0001.52
2022-08-02 20:48:00,,0824.9,5.00,0.00,29.2,27.7,00.0,37.9,31.1,27.6,0000.0,0007.22,0002.47,0001.76
2022-08-02 20:49:00,,0824.9,4.99,0.00,29.2,27.9,00.0,37.9,31.2,26.4,0000.0,0007.50,0002.71,0001.99
2022-08-02 20:50:00,,0825.0,5.00,0.00,29.3,27.9,00.0,37.9,31.2,26.3,0000.0,0007.86,0002.87,0002.15
2022-08-02 20:51:00,,0825.1,4.99,0.00,29.2,27.4,00.0,37.9,31.1,26.6,0000.0,0008.13,0003.05,0002.35
2022-08-02 20:52:00,,0825.2,5.01,0.00,29.2,26.9,00.0,37.9,31.0,25.6,0000.0,0008.18,0003.17,0002.52
2022-08-02 20:53:00,,0825.2,5.00,0.00,29.2,27.0,00.0,37.9,31.0,24.7,0000.0,0007.96,0003.23,0002.61
2022-08-02 20:54:00,,0825.2,4.99,0.00,29.1,27.1,00.0,37.9,30.9,25.0,0000.0,0007.88,0003.29,0002.70
2022-08-02 20:55:00,,0825.2,5.00,0.00,29.1,27.3,00.0,37.9,30.9,25.3,0000.0,0007.77,0003.28,0002.69
2022-08-02 20:56:00,,0825.2,4.99,0.00,29.1,27.5,00.0,37.9,31.0,25.3,0000.0,0006.76,0003.20,0002.64
2022-08-02 20:57:00,,0825.1,5.00,0.00,29.2,27.8,00.0,37.9,31.1,25.3,0000.0,0006.32,0003.08,0002.56
2022-08-02 20:58:00,,0825.1,5.01,0.00,29.2,27.8,00.0,37.9,31.1,25.5,0000.0,0005.97,0002.92,0002.50
2022-08-02 20:59:00,,0825.2,5.01,0.00,29.2,27.2,00.0,37.9,31.0,24.8,0000.0,0005.87,0002.79,0002.39
